Location: Unspecified
(49.2170°N, 0.0000°E)
Time: 09:04:34
(UTC+00:00)

Transit 2A - Pass Details

Date: 24 June 2019
Orbit: 594 x 965 km, 66.7° (Epoch: 16 July)

Event Time Altitude Azimuth Distance (km) Brightness Sun altitude
Rises 02:44:42 0° 273° (W) 3,648 9.2 -8.9°
Reaches altitude 10° 02:48:03 10° 290° (WNW) 2,685 8.6 -8.5°
Maximum altitude 02:52:36 20° 336° (NNW) 1,999 8.5 -8.1°
Drops below altitude 10° 02:56:59 10° 23° (NNE) 2,575 10.2 -7.6°
Sets 03:00:08 0° 40° (NE) 3,454 12.1 -7.3°
